Location: Praha
(50.0830°N, 14.4670°E)
Time: 02:35:59
(UTC+02:00)

ISS - Pass Details

Date: 16 September 2023
Orbit: 413 x 422 km, 51.6° (Epoch: 25 September)

Event Time Altitude Azimuth Distance (km) Brightness Sun altitude
Rises 21:34:22 0° 253° (WSW) 2,347 0.6 -21.9°
Reaches altitude 10° 21:36:27 10° 253° (WSW) 1,488 -0.5 -22.2°
Enters shadow 21:38:43 40° 254° (WSW) 624 -2.7 -22.5°
